EHI
0 0 1 2 1 0 0 0 0 0 0 0 0 0 0 0 0 0 0 0 0 0 0 0 0 0 0 0 0 0 0 0 0 0 0 0 0 0 0 0 0 0 0
0 0 1 2 2 1 1 1 1 0 0 0 0 0 0 0 0 0 0 0 0 0 0 0 0 0 0 0 0 0 0 0 0 0 0 0 0 0 0 0 0 0 0
1 0 0 1 2 2 3 3 2 1 1 0 0 0 0 0 0 1 1 1 0 0 0 0 0 0 0 0 0 0 0 0 0 0 0 0 0 0 0 0 0 0 0
2 1 0 0 1 1 2 3 2 2 2 1 1 0 0 0 0 1 2 1 0 0 0 0 0 0 0 0 0 0 0 0 0 0 0 0 0 0 0 0 0 0 0
2 1 0 0 0 0 1 1 1 1 2 2 1 1 0 0 0 1 1 1 0 0 0 0 0 0 0 0 0 0 0 0 0 0 0 0 0 0 0 0 0 0 0
2 1 0 0 0 0 0 0 1 1 1 1 2 2 1 0 0 0 0 0 0 0 0 0 0 0 0 0 0 0 0 0 0 0 0 0 0 0 0 0 0 0 0
2 1 0 0 0 0 0 1 2 2 1 1 2 2 1 1 0 0 0 0 0 0 0 0 0 0 0 0 0 0 0 0 0 0 0 0 0 0 0 0 0 0 0
3 2 1 1 0 0 1 2 3 3 3 3 3 3 2 1 0 0 0 0 0 0 0 0 0 0 0 0 0 0 0 0 0 0 0 0 0 0 0 0 0 0 0
3 2 1 0 0 0 1 2 2 2 2 2 3 3 2 1 0 0 0 0 0 0 0 0 0 0 0 0 0 0 0 0 0 0 0 0 0 0 0 0 0 0 0
2 1 0 0 0 0 0 1 1 1 1 1 1 1 0 0 0 0 0 0 0 0 0 0 0 0 0 0 0 0 0 0 0 0 0 0 0 0 0 0 0 0 0
1 0 0 0 0 0 0 0 0 0 0 0 0 0 0 0 0 0 0 0 0 0 0 0 0 0 0 0 0 0 0 0 0 0 0 0 0 0 0 0 0 0 0
0 0 0 1 1 1 0 0 0 0 0 0 0 0 0 0 0 0 0 0 0 0 0 0 0 0 0 0 0 0 0 0 0 0 0 0 0 0 0 0 0 0 0
0 0 0 1 2 2 1 0 0 0 0 0 0 0 0 0 0 0 0 0 0 0 0 0 0 0 0 0 0 0 0 0 0 0 0 0 0 0 0 0 0 0 0
0 0 1 2 3 3 1 0 0 0 0 0 0 0 0 0 0 0 0 0 0 0 0 0 0 0 0 0 0 0 0 0 0 0 0 0 0 0 0 0 0 0 0
0 0 1 2 3 3 2 1 0 0 0 0 0 0 0 0 0 0 0 0 0 0 0 0 0 0 0 0 0 0 0 0 0 0 0 0 0 0 0 0 0 0 0
0 0 0 1 2 3 3 2 1 1 1 1 0 0 0 0 0 0 0 0 0 0 0 0 0 0 0 0 0 0 0 0 0 0 0 0 0 0 0 0 0 0 0
0 0 0 0 1 2 3 3 3 2 2 1 0 0 0 0 0 0 0 0 0 0 0 0 0 0 0 0 0 0 0 0 0 0 0 0 0 0 0 0 0 0 0
0 0 0 0 0 1 2 3 3 2 1 0 0 0 0 0 0 0 0 0 0 0 0 0 0 0 0 0 0 0 0 0 0 0 0 0 0 0 0 0 0 0 0
0 0 0 0 0 0 1 2 2 1 0 0 0 0 0 0 0 0 0 0 0 0 0 0 0 0 0 0 0 0 0 0 0 0 0 0 0 0 0 0 0 0 0
0 0 0 0 0 0 0 1 1 0 0 0 0 0 0 0 0 0 0 0 0 0 0 0 0 0 0 0 0 0 0 0 0 0 0 0 0 0 0 0 0 0 0
0 0 0 0 0 0 0 0 0 0 0 0 0 0 0 0 0 0 0 0 0 0 0 0 0 0 0 0 0 0 0 0 0 0 0 0 0 0 0 0 0 0 0
0 0 0 0 0 0 0 0 0 0 0 0 0 0 0 0 0 0 0 0 0 0 0 0 0 0 0 0 0 0 0 0 0 0 0 0 0 0 0 0 0 0 0
0 0 0 0 0 0 0 0 0 0 0 0 0 0 0 0 0 0 0 0 0 0 0 0 0 0 0 0 0 0 0 0 0 0 0 0 0 0 0 0 0 0 0
0 0 0 0 0 0 0 0 0 0 0 0 0 0 0 0 0 0 0 0 0 0 0 0 0 0 0 0 0 0 0 0 0 0 0 0 0 0 0 0 0 0 0
0 0 0 0 0 0 0 0 0 0 0 0 0 0 0 0 0 0 0 0 0 0 0 0 0 0 0 0 0 0 0 0 0 0 0 0 0 0 0 0 0 0 0
0 0 0 0 0 0 0 0 0 0 0 0 0 0 0 0 0 0 0 0 0 0 0 0 0 0 0 0 0 0 0 0 0 0 0 0 0 0 0 0 0 0 0
Wind_Speed
3 4 6 5 4 5 6 6 7 8 8 8 9 9 9 9 10 10 10 10 11 11 11 12 13 13 13 13 14 14 14 13 14 13 13 13 13 13 13 13 11 8 13
2 3 5 5 4 5 6 6 7 7 7 8 8 9 9 9 10 10 10 10 10 11 11 12 13 13 13 13 13 13 13 13 13 13 12 10 11 12 13 12 11 8 13
2 3 4 4 5 6 7 7 7 7 7 8 8 8 8 8 9 10 10 10 10 10 11 12 12 12 12 12 12 12 12 12 12 12 10 6 6 11 12 12 12 12 12
2 3 3 5 6 7 7 7 7 7 8 8 8 8 8 8 8 9 9 9 10 10 11 11 11 12 12 12 12 12 12 11 11 10 6 5 5 10 11 12 12 12 12
3 3 3 6 7 7 8 7 8 8 8 8 8 8 8 8 8 8 9 9 9 10 10 10 10 11 11 11 11 11 11 11 11 8 5 5 4 8 10 11 11 11 12
4 4 4 7 7 7 8 8 8 8 8 8 8 8 8 8 8 8 8 8 8 8 9 9 9 10 10 10 10 11 10 10 8 5 5 4 4 8 10 10 10 10 11
3 4 4 6 7 7 7 7 8 8 7 7 8 8 8 8 8 7 7 7 7 7 7 8 9 9 9 9 10 10 10 9 6 4 4 4 4 7 8 9 8 9 10
3 4 4 6 7 7 7 7 7 7 7 7 7 7 8 7 8 8 7 7 7 7 7 7 8 8 8 9 9 9 9 8 5 4 3 3 4 6 7 8 8 8 8
3 3 3 4 5 6 7 7 7 6 7 7 8 8 8 7 7 7 7 7 7 7 7 7 7 7 7 8 8 8 9 8 4 3 3 2 4 5 7 7 7 7 8
3 3 3 4 4 4 4 6 8 7 7 7 8 8 8 7 7 7 6 6 7 7 7 7 7 7 7 7 8 8 8 6 3 3 2 2 4 5 6 6 6 6 6
3 3 3 3 3 3 3 5 6 6 6 7 6 8 7 4 3 4 6 6 6 6 7 7 7 8 7 7 7 7 6 3 3 2 2 4 4 4 5 5 5 5 6
1 2 2 3 3 3 2 3 2 3 3 3 3 3 3 3 3 4 5 7 6 6 6 7 7 7 6 3 4 5 2 3 2 2 2 4 4 4 4 4 4 5 5
1 1 2 2 2 2 1 1 1 1 2 2 3 3 2 2 2 2 2 3 3 4 3 4 4 3 3 2 2 2 2 2 1 2 2 4 3 4 4 4 3 3 4
1 1 1 1 1 1 1 1 1 1 1 1 1 2 1 1 2 1 1 1 2 1 2 2 2 2 2 2 1 1 2 1 1 1 2 4 4 2 3 3 3 2 3
1 2 2 1 1 1 1 1 1 0 1 1 1 1 1 1 1 1 1 1 1 1 1 1 1 2 2 1 1 1 1 1 1 1 2 3 4 3 1 1 2 2 2
2 2 2 1 1 1 0 1 1 0 0 1 1 1 0 0 1 1 1 0 0 0 0 0 1 0 1 1 1 1 1 1 1 1 1 2 3 3 2 1 1 1 1
2 2 2 2 1 1 1 1 1 1 0 1 1 1 1 1 1 1 1 1 1 0 0 0 1 1 1 1 1 1 1 1 1 1 1 1 1 3 3 1 1 1 1
2 2 3 2 1 1 1 1 1 1 1 1 1 1 1 1 1 1 1 1 1 1 1 0 0 1 1 1 1 1 1 1 1 1 1 1 1 1 2 3 2 2 1
3 3 2 2 2 2 1 1 1 1 1 1 1 1 1 1 1 1 1 1 1 0 0 0 0 0 1 1 2 1 1 1 2 2 1 1 1 1 0 2 3 3 2
2 2 2 2 1 1 1 1 1 1 1 1 1 1 1 1 1 1 1 1 1 1 0 0 1 0 1 1 2 2 2 2 2 1 2 1 1 1 0 1 1 2 3
1 2 2 1 1 0 1 1 1 2 1 1 1 1 1 1 1 1 1 1 1 1 2 1 1 1 0 1 1 2 2 2 2 2 1 1 1 1 0 1 0 0 1
2 2 2 2 2 2 1 1 1 2 1 1 1 1 2 2 2 2 2 2 2 2 1 2 1 1 1 0 0 0 1 2 2 2 1 2 2 1 1 1 1 1 1
2 2 2 2 2 2 1 0 1 1 1 1 1 1 2 2 2 2 3 3 3 3 3 3 3 3 2 1 1 1 1 2 2 2 2 2 2 2 2 2 2 2 2
3 2 2 2 2 2 1 1 1 1 2 2 2 2 3 2 2 2 3 3 4 3 3 4 3 3 3 3 2 2 2 2 1 2 2 2 2 3 3 3 2 2 2
2 1 1 1 1 1 1 2 2 2 2 2 2 2 3 2 2 2 3 3 4 3 4 4 4 4 4 4 3 2 1 1 2 2 3 3 3 3 3 3 3 3 3
2 1 1 1 1 1 1 1 2 3 2 2 3 3 3 2 2 3 3 3 4 4 4 4 5 5 4 4 4 3 3 2 2 2 3 3 4 3 4 4 4 3 3
Wind_Direction
315 319 326 356 34 51 56 55 54 55 55 59 66 68 71 72 71 73 71 72 73 73 71 71 71 70 71 73 72 70 67 67 67 66 65 67 69 70 71 68 68 64 74
301 320 336 8 48 51 52 55 55 57 57 58 67 69 70 74 74 74 72 73 74 73 72 70 71 71 71 71 70 69 69 68 66 64 59 59 66 70 71 72 74 75 76
14 357 350 24 55 55 53 53 56 59 60 59 64 69 68 75 75 75 73 72 71 72 72 72 71 72 71 69 68 68 69 68 63 61 55 46 60 70 70 72 74 74 76
25 22 13 40 54 52 52 52 54 56 59 60 62 68 68 74 76 75 74 72 71 71 71 72 72 72 72 70 68 68 69 68 62 56 48 40 49 70 71 72 74 73 74
34 24 23 48 52 50 48 48 49 50 54 56 58 63 67 68 71 73 74 72 71 69 70 71 73 73 73 72 70 68 68 67 59 50 41 38 43 68 69 72 73 73 74
38 25 27 46 50 50 47 45 44 45 52 55 54 56 62 65 66 69 71 70 70 70 72 72 75 74 72 71 69 68 68 64 54 43 39 36 40 69 71 73 74 75 74
51 32 30 45 47 46 45 43 42 41 47 51 53 53 55 59 61 62 66 66 68 72 76 75 76 76 74 70 68 68 67 61 53 44 36 30 43 70 74 74 74 77 77
70 44 33 41 44 43 40 40 41 42 46 46 48 49 51 54 58 57 59 61 65 70 74 77 76 76 76 73 71 70 65 59 55 48 33 24 49 73 76 75 75 77 79
69 52 37 32 31 33 37 36 35 42 48 47 45 45 44 45 51 55 51 57 61 64 66 69 72 73 76 76 74 70 65 56 52 43 33 16 41 78 82 79 77 77 80
64 49 33 29 29 24 23 31 32 35 41 45 44 42 38 37 38 44 41 50 56 60 63 63 66 69 71 73 70 66 59 49 41 38 26 15 45 78 85 82 81 79 80
41 26 22 22 23 18 21 30 28 29 33 40 39 40 38 25 25 31 30 41 48 54 60 61 60 61 61 65 66 61 54 41 38 33 21 26 52 71 79 82 83 82 80
349 358 11 12 10 13 20 27 21 25 22 27 32 30 27 21 20 32 32 37 41 46 50 52 53 54 49 45 53 54 46 38 33 19 13 24 49 62 74 78 85 87 85
253 340 1 2 359 11 13 21 20 20 13 19 26 22 26 24 18 24 26 24 27 38 39 38 40 35 37 41 41 40 38 38 18 355 1 18 36 56 68 70 86 94 89
269 295 338 357 357 1 8 6 24 16 5 3 357 9 30 27 13 2 23 16 26 29 35 33 32 24 27 32 47 45 34 29 13 350 346 13 16 33 62 68 80 98 107
247 283 308 321 349 352 6 332 22 355 339 336 319 331 27 33 341 340 350 21 22 31 48 31 30 19 14 14 17 32 4 6 1 349 337 0 5 1 32 76 82 82 101
252 269 285 297 298 324 324 301 285 296 314 308 308 304 302 253 263 284 319 324 357 20 23 29 8 351 338 337 336 334 308 320 331 328 328 335 359 0 354 23 80 70 57
244 260 266 264 272 269 268 261 295 293 275 276 293 302 283 256 245 239 276 279 257 227 14 32 12 13 3 349 316 298 297 301 303 305 312 314 330 351 355 3 57 45 19
243 248 252 258 256 252 261 265 280 284 260 256 271 289 293 281 257 234 252 271 264 206 166 161 75 11 342 329 302 280 280 283 281 276 285 301 299 316 333 355 6 9 357
231 237 244 251 248 252 258 264 270 269 262 255 255 267 283 281 250 227 236 260 255 211 192 222 37 323 286 309 290 276 272 261 265 271 271 280 281 282 325 345 357 357 350
234 235 238 249 252 275 307 317 318 315 291 271 248 247 272 276 265 249 238 262 226 202 211 229 241 298 254 283 288 285 272 264 250 243 248 261 270 256 329 355 350 338 341
247 234 223 234 251 225 258 269 273 274 287 280 261 266 239 241 245 245 251 262 232 211 218 208 235 226 294 328 331 317 301 264 240 229 227 224 243 241 240 268 256 321 311
246 240 232 226 225 224 240 236 242 259 260 264 282 275 265 252 235 226 239 246 237 224 220 218 181 190 259 175 176 319 311 298 287 251 227 223 233 240 253 276 251 245 279
266 254 242 236 230 224 226 345 346 348 335 315 308 295 286 267 250 244 230 239 235 216 217 222 207 192 207 231 213 189 193 249 303 289 253 239 236 238 244 255 254 248 248
262 270 257 235 231 226 186 191 193 229 254 261 271 283 290 271 255 250 244 235 233 222 221 224 218 213 196 215 228 248 231 187 220 290 283 266 258 248 241 250 249 247 240
271 265 257 238 231 217 189 196 204 242 258 284 297 290 288 281 269 261 251 243 237 225 222 226 218 218 211 211 210 222 241 245 220 225 269 279 283 262 248 238 232 234 238
330 329 324 287 269 235 210 215 218 237 262 293 297 285 288 288 280 279 271 253 248 235 226 225 223 215 220 216 213 213 206 206 210 217 249 274 275 270 267 249 232 230 232